Macomb, IL

7:02 AM CDT on August 22, 2017 (GMT -0500)
Macomb Municipal

Weather History for KMQB - October, 2013

Change the Weather History Date:

Friday, October 18, 2013

  Actual Average (KBRL) Record (KBRL)
Temperature  
Mean Temperature 50 °F -  
Max Temperature 57 °F 56 °F 87 °F (1950)
Min Temperature 43 °F 36 °F 23 °F (1948)
Degree Days  
Heating Degree Days 15    
Moisture  
Dew Point 40 °F    
Average Humidity 73    
Maximum Humidity 93    
Minimum Humidity 44    
Precipitation  
Precipitation 0.00 in - - ()
Sea Level Pressure  
Sea Level Pressure 30.01 in    
Wind  
Wind Speed 8 mph (West)    
Max Wind Speed 15 mph    
Max Gust Speed 18 mph    
Visibility 10 miles    
Events Rain    
Averages and records for this station are not official NWS values.
T = Trace of Precipitation, MM = Missing Value Source: NWS Daily Summary

Daily Weather History Graph

Daily Weather History Graph

Search for Another Location

Airport or City:

Trip Planner

Search our weather history database for the weather conditions in past years. The results will help you decide how hot, cold, wet, or windy it might be!

Date:

Astronomy

Oct. 18, 2013 Rise Set
Actual Time 7:17 AM CDT 6:17 PM CDT
Civil Twilight 6:49 AM CDT 6:45 PM CDT
Nautical Twilight 6:17 AM CDT 7:16 PM CDT
Astronomical Twilight 5:46 AM CDT 7:48 PM CDT
Moon 6:07 PM CDT (10/18) 6:52 AM CDT (10/18)
Length of Visible Light 11h 55m
Length of Day
11h 00m
Full, 100% of the Moon is Illuminated
Oct 18
Full
Oct 18
Full
Oct 26
Last Quarter
Nov 3
New
Nov 9
First Quarter

Hourly Weather History & Observations

Time (CDT) Temp. Windchill Dew Point Humidity Pressure Visibility Wind Dir Wind Speed Gust Speed Precip Events Conditions
12:15 AM 47.5 °F - 41.2 °F 79% 29.91 in 10.0 mi SW 6.9 mph - N/A   Clear
12:35 AM 46.4 °F 43.5 °F 41.0 °F 81% 29.92 in 10.0 mi WSW 5.8 mph - N/A   Clear
12:55 AM 45.1 °F 41.4 °F 40.5 °F 84% 29.92 in 10.0 mi WSW 6.9 mph - N/A   Clear
1:15 AM 46.2 °F 43.3 °F 40.6 °F 81% 29.92 in 10.0 mi WSW 5.8 mph - N/A   Clear
1:35 AM 46.4 °F 42.9 °F 40.1 °F 79% 29.92 in 10.0 mi WSW 6.9 mph - N/A   Clear
1:55 AM 47.5 °F - 40.1 °F 76% 29.93 in 10.0 mi West 6.9 mph - N/A   Clear
2:15 AM 46.6 °F - 40.1 °F 78% 29.93 in 10.0 mi West 6.9 mph - N/A   Clear
2:35 AM 45.1 °F 42.8 °F 39.2 °F 80% 29.93 in 10.0 mi West 4.6 mph - N/A   Clear
2:55 AM 44.2 °F 41.0 °F 39.2 °F 82% 29.94 in 10.0 mi West 5.8 mph - N/A   Clear
3:15 AM 44.1 °F 40.1 °F 39.4 °F 84% 29.94 in 10.0 mi West 6.9 mph - N/A   Clear
3:35 AM 43.9 °F 39.3 °F 40.1 °F 87% 29.94 in 10.0 mi West 8.1 mph - N/A   Clear
3:55 AM 44.1 °F 39.5 °F 40.6 °F 88% 29.94 in 10.0 mi West 8.1 mph - N/A   Clear
4:15 AM 43.7 °F 39.7 °F 40.6 °F 89% 29.94 in 10.0 mi West 6.9 mph - N/A   Clear
4:35 AM 43.2 °F 39.7 °F 40.8 °F 91% 29.94 in 10.0 mi West 5.8 mph - N/A   Clear
4:55 AM 43.3 °F 38.6 °F 41.4 °F 93% 29.95 in 10.0 mi WNW 8.1 mph - N/A   Clear
5:15 AM 45.5 °F 41.8 °F 43.2 °F 92% 29.96 in 7.0 mi WNW 6.9 mph - N/A   Scattered Clouds
5:35 AM 46.6 °F - 44.2 °F 92% 29.96 in 10.0 mi West 8.1 mph - N/A   Overcast
5:55 AM 46.9 °F - 44.1 °F 90% 29.97 in 10.0 mi West 8.1 mph - N/A   Overcast
6:15 AM 46.9 °F - 44.1 °F 90% 29.97 in 10.0 mi West 6.9 mph - N/A   Mostly Cloudy
6:35 AM 45.5 °F 42.5 °F 43.2 °F 92% 29.98 in 7.0 mi West 5.8 mph - N/A   Mostly Cloudy
6:55 AM 45.9 °F 42.3 °F 43.7 °F 92% 29.99 in 7.0 mi West 6.9 mph - N/A   Overcast
7:15 AM 46.4 °F 42.9 °F 43.7 °F 90% 30.00 in 10.0 mi West 6.9 mph - N/A   Overcast
7:35 AM 46.6 °F - 44.1 °F 91% 30.00 in 7.0 mi West 6.9 mph - N/A   Overcast
7:55 AM 46.8 °F - 42.8 °F 86% 30.01 in 10.0 mi NW 8.1 mph - N/A   Overcast
8:15 AM 46.8 °F - 41.7 °F 83% 30.02 in 10.0 mi NW 8.1 mph - N/A   Overcast
8:35 AM 46.8 °F - 41.4 °F 81% 30.03 in 10.0 mi WNW 9.2 mph - N/A   Overcast
8:55 AM 47.3 °F - 40.3 °F 77% 30.04 in 10.0 mi WNW 9.2 mph - N/A   Overcast
9:15 AM 47.7 °F - 39.2 °F 72% 30.05 in 10.0 mi West 15.0 mph 18.4 mph N/A   Overcast
9:35 AM 48.2 °F - 38.5 °F 69% 30.05 in 10.0 mi WNW 15.0 mph - N/A   Overcast
9:55 AM 48.7 °F - 38.3 °F 67% 30.05 in 10.0 mi WNW 9.2 mph 18.4 mph N/A   Overcast
10:15 AM 49.5 °F - 38.7 °F 66% 30.05 in 10.0 mi West 9.2 mph - N/A   Overcast
10:32 AM 50.0 °F - 37.4 °F 62% 30.05 in 10.0 mi NW 9.2 mph - N/A   Overcast
10:35 AM 50.0 °F - 37.9 °F 63% 30.05 in 10.0 mi NW 10.4 mph - N/A   Overcast
10:51 AM 51.8 °F - 37.4 °F 58% 30.05 in 10.0 mi West 8.1 mph - N/A   Overcast
10:55 AM 52.5 °F - 38.5 °F 59% 30.05 in 10.0 mi WNW 10.4 mph - N/A   Overcast
11:15 AM 52.3 °F - 37.6 °F 57% 30.05 in 10.0 mi WNW 11.5 mph 16.1 mph N/A   Mostly Cloudy
11:35 AM 53.8 °F - 36.9 °F 53% 30.05 in 10.0 mi West 10.4 mph - N/A   Scattered Clouds
11:55 AM 54.9 °F - 36.7 °F 50% 30.04 in 10.0 mi WNW 6.9 mph - N/A   Mostly Cloudy
12:15 PM 54.5 °F - 36.7 °F 51% 30.04 in 10.0 mi West 10.4 mph - N/A   Mostly Cloudy
12:35 PM 55.0 °F - 36.7 °F 50% 30.04 in 10.0 mi West 8.1 mph - N/A   Mostly Cloudy
12:55 PM 54.9 °F - 36.3 °F 50% 30.03 in 10.0 mi WNW 9.2 mph 16.1 mph N/A   Scattered Clouds
1:15 PM 56.8 °F - 36.7 °F 47% 30.02 in 10.0 mi WNW 6.9 mph - N/A   Scattered Clouds
1:35 PM 56.5 °F - 36.5 °F 47% 30.02 in 10.0 mi WNW 11.5 mph 17.3 mph N/A   Scattered Clouds
1:55 PM 57.2 °F - 35.6 °F 44% 30.02 in 10.0 mi WNW 8.1 mph - N/A   Scattered Clouds
2:15 PM 57.0 °F - 36.3 °F 46% 30.01 in 10.0 mi WNW 11.5 mph - N/A   Scattered Clouds
2:35 PM 55.4 °F - 35.6 °F 47% 30.02 in 10.0 mi West 9.2 mph - N/A   Scattered Clouds
2:55 PM 55.0 °F - 35.4 °F 48% 30.03 in 10.0 mi NW 11.5 mph - N/A   Mostly Cloudy
3:15 PM 54.7 °F - 35.8 °F 49% 30.02 in 10.0 mi WNW 9.2 mph - N/A   Scattered Clouds
3:35 PM 54.5 °F - 35.6 °F 49% 30.02 in 10.0 mi WNW 10.4 mph - N/A   Clear
3:55 PM 54.0 °F - 35.2 °F 49% 30.02 in 10.0 mi WNW 6.9 mph - N/A   Scattered Clouds
4:15 PM 53.6 °F - 35.8 °F 51% 30.00 in 10.0 mi NNW 10.4 mph - N/A   Scattered Clouds
4:35 PM 53.6 °F - 36.0 °F 51% 30.02 in 10.0 mi WNW 10.4 mph - N/A   Mostly Cloudy
4:55 PM 53.2 °F - 36.3 °F 53% 30.02 in 10.0 mi WNW 8.1 mph - N/A   Overcast
5:15 PM 53.1 °F - 35.8 °F 52% 30.02 in 10.0 mi WNW 5.8 mph - N/A   Overcast
5:35 PM 52.9 °F - 36.1 °F 53% 30.02 in 10.0 mi West 4.6 mph - N/A   Overcast
5:55 PM 52.2 °F - 37.4 °F 57% 30.03 in 10.0 mi West 4.6 mph - N/A   Light Drizzle
6:15 PM 50.5 °F - 39.7 °F 66% 30.04 in 10.0 mi West 8.1 mph - N/A Rain Light Rain
6:35 PM 49.1 °F - 40.6 °F 73% 30.04 in 10.0 mi WSW 6.9 mph - N/A Rain Light Rain
6:55 PM 47.8 °F - 42.1 °F 80% 30.03 in 10.0 mi SW 4.6 mph - N/A Rain Light Rain
7:15 PM 47.3 °F - 43.0 °F 85% 30.03 in 10.0 mi SW 4.6 mph - N/A   Light Drizzle
7:35 PM 46.9 °F - 42.8 °F 86% 30.03 in 10.0 mi SW 6.9 mph - N/A   Overcast
7:55 PM 46.6 °F - 42.8 °F 87% 30.03 in 10.0 mi SW 5.8 mph - N/A   Overcast
8:15 PM 46.4 °F 43.5 °F 42.3 °F 85% 30.04 in 10.0 mi WSW 5.8 mph - N/A   Overcast
8:35 PM 45.9 °F 41.7 °F 41.9 °F 86% 30.04 in 10.0 mi SW 8.1 mph - N/A Rain Light Rain
8:55 PM 45.5 °F 41.3 °F 42.1 °F 88% 30.04 in 10.0 mi WSW 8.1 mph - N/A   Overcast
9:15 PM 45.1 °F 41.4 °F 41.9 °F 88% 30.05 in 10.0 mi WSW 6.9 mph - N/A   Overcast
9:35 PM 44.8 °F 40.4 °F 41.4 °F 88% 30.05 in 10.0 mi SW 8.1 mph - N/A Rain Light Rain
9:55 PM 44.4 °F 40.5 °F 41.0 °F 88% 30.05 in 10.0 mi SW 6.9 mph - N/A   Light Drizzle
10:15 PM 44.1 °F 39.0 °F 41.2 °F 90% 30.05 in 10.0 mi WSW 9.2 mph - N/A Rain Rain
10:35 PM 43.9 °F 39.3 °F 41.2 °F 90% 30.04 in 10.0 mi WSW 8.1 mph - N/A   Light Drizzle
10:55 PM 43.7 °F 39.1 °F 41.4 °F 91% 30.04 in 10.0 mi WSW 8.1 mph - N/A Rain Light Rain
11:15 PM 43.7 °F 39.1 °F 41.5 °F 92% 30.03 in 10.0 mi WSW 8.1 mph - N/A Rain Light Rain
11:35 PM 43.7 °F 39.1 °F 41.5 °F 92% 30.03 in 10.0 mi WSW 8.1 mph - N/A Rain Light Rain
11:55 PM 43.7 °F 39.7 °F 41.5 °F 92% 30.02 in 10.0 mi West 6.9 mph - N/A Rain Light Rain